This demonstration page uses our WeatherBlox Daily Observations layout. Learn more.

Left ArrowRight Arrow

41.55636, -103.73856

Hourly Observations for June 29, 2022

Temp ( °F °C ) Dew Point ( °F °C ) Humidity (%) Winds ( mph kmh ) Pressure ( in mb ) Visibility ( mi km ) Precip ( " mm )
12:58 am 00:58 Clear 75 23.8 35 1.4 23 23 S 35 56 29.85 1011 10 16 0.00 0.00
1:58 am 01:58 Clear 73 22.8 35 1.7 25 25 SSW 29 46 29.85 1011 10 16 0.00 0.00
2:58 am 02:58 Clear 71 21.7 35 1.9 27 27 SSW 22 35 29.86 1011 10 16 0.00 0.00
3:58 am 03:58 Clear 71 21.6 33 0.7 25 25 SSW 24 39 29.83 1010 10 16 0.00 0.00
4:58 am 04:58 Mostly Clear 67 19.4 34 0.9 29 29 SSW 12 19 29.86 1011 10 16 0.00 0.00
5:58 am 05:58 Mostly Cloudy 67 19.5 35 1.5 30 30 SSW 13 20 29.86 1011 10 16 0.00 0.00
6:58 am 06:58 Sunny 67 19.6 36 2.4 32 32 SSW 3 6 29.88 1012 10 16 0.00 0.00
7:58 am 07:58 Sunny 77 25.2 38 3.2 24 24 NW 6 9 29.88 1012 10 16 0.00 0.00
8:58 am 08:58 Sunny 85 29.5 32 0.1 15 15 WNW 14 22 29.88 1012 10 16 0.00 0.00
9:58 am 09:58 Sunny 88 31.2 33 0.5 14 14 W 12 19 29.86 1011 10 16 0.00 0.00
10:58 am 10:58 Sunny 90 32 32 0.1 13 13 W 8 13 29.85 1011 10 16 0.00 0.00
11:58 am 11:58 Sunny 95 34.8 32 0 11 11 NNW 8 13 29.81 1010 10 16 0.00 0.00
12:58 pm 12:58 Sunny 96 35.7 31 -0.7 10 10 WNW 12 19 29.79 1009 10 16 0.00 0.00
1:58 pm 13:58 Cloudy with Light Rain 84 29 41 5.1 22 22 SW 28 44 29.84 1011 10 16 0.02 0.51
2:58 pm 14:58 Cloudy with Light Rain 74 23.4 50 10.1 43 43 SW 31 50 29.97 1015 10 16 0.01 0.25
3:58 pm 15:58 Mostly Cloudy 78 25.3 54 12.2 44 44 SE 10 17 29.89 1012 10 16 0.02 0.51
4:58 pm 16:58 Sunny 87 30.4 42 5.6 21 21 SW 5 7 29.84 1010 10 16 0.00 0.00
5:58 pm 17:58 Sunny 88 31.1 42 5.5 20 20 SSW 13 20 29.80 1009 10 16 0.00 0.00
6:58 pm 18:58 Sunny 86 30.1 43 6 22 22 SW 14 22 29.80 1009 10 16 0.00 0.00
7:58 pm 19:58 Partly Cloudy 81 27.2 41 4.9 24 24 W 29 46 29.85 1011 10 16 0.00 0.00
8:58 pm 20:58 Mostly Cloudy with Nearby Thunderstorms 84 28.9 33 0.5 16 16 W 28 44 29.82 1010 10 16 0.00 0.00
9:58 pm 21:58 Partly Cloudy 78 25.6 42 5.7 28 28 SW 25 41 29.85 1011 10 16 0.00 0.00
10:58 pm 22:58 Mostly Cloudy 74 23.6 43 5.9 32 32 SSW 21 33 29.85 1011 10 16 0.00 0.00
11:58 pm 23:58 Mostly Cloudy 73 22.9 43 6.2 34 34 SSW 21 33 29.83 1010 10 16 0.00 0.00

Powered by AerisWeather